Location: Clanezzo
(45.7500°N, 9.6000°E)
Time: 14:13:54
(UTC+00:00)

ARIANE 5 R/B - Pass Details

Date: 12 May 2021
Orbit: 620 x 656 km, 98.1° (Epoch: 13 June)

Event Time Altitude Azimuth Distance (km) Brightness Sun altitude
Exits shadow 21:15:27 26° 212° (SSW) 1,237 3.8 -20.1°
Maximum altitude 21:17:20 39° 262° (W) 934 3.6 -20.3°
Drops below altitude 10° 21:21:24 10° 332° (NNW) 1,998 6.4 -20.7°
Sets 21:23:44 0° 340° (NNW) 2,910 7.5 -20.9°
